Regional Weather Roundup
Issued by NWS

Home | Current Version | Previous Version | Text Only | Print | Product List | Glossary On
Versions: 1 2 3 4 5 6 7 8 9 10 11 12 13 14 15 16 17 18 19 20 21 22 23 24 25 26 27 28 29 30 31 32 33 34 35 36 37 38 39 40 41 42 43 44 45 46 47 48 49 50
000
ASPQ40 PGUM 221412
RWRPQ
WEATHER ROUNDUP FOR THE MARIANAS AND MICRONESIA
NATIONAL WEATHER SERVICE TIYAN GU
1200 AM CHST MON JAN 23 2017

GUZ001>004-221500-
MARIANA ISLANDS-

CITY           SKY/WX    TMP DP  RH WIND       PRES   REMARKS
GUAM AIRPORT   LGT RAIN  79  75  89 NE10G23   29.99S FOG
ANDERSEN AFB   LGT RAIN  77  73  88 NE21G30   30.00S
ROTA AIRPORT   NOT AVBL
TINIAN AP      NOT AVBL
SAIPAN AP      MOCLDY    77  72  83 NE13      30.01S

$$

PMZ161-221500-
REPUBLIC OF PALAU-

CITY           SKY/WX    TMP DP  RH WIND       PRES   REMARKS
KOROR AP       LGT RAIN  79  77  94 NE10      29.87S
KOROR WSO      LGT RAIN  79  79 100 E6        29.88S

$$

PMZ171>174-221500-
FEDERATED STATES OF MICRONESIA-

CITY           SKY/WX    TMP DP  RH WIND       PRES   REMARKS
YAP AIRPORT    MOCLDY    81  77  89 E8        29.89F
CHUUK AP       MOCLDY    82  77  83 VRB7      29.83F HX  91
POHNPEI AP     CLOUDY    81  77  89 E12       29.81F
POHNPEI WSO    PTCLDY    82  75  78 NE7       29.85F
KOSRAE AP      NOT AVBL

$$

PMZ181-221500-
REPUBLIC OF THE MARSHALL ISLANDS-

CITY           SKY/WX    TMP DP  RH WIND       PRES   REMARKS
KWAJALEIN AP   PTCLDY    81  77  89 NE17      29.84F
MAJURO AP      NOT AVBL
MAJURO WSO     LGT RAIN  81  77  89 NE14      29.79F

$$




USA.gov is the U.S. government's official web portal to all federal, state and local government web resources and services.